Presure
122 137 124 129 129 125 135 136 105 116 124 127 114 138 142 177 165 166 163 154 146 180 165 170 160 155 163 184 174 193 200 133 174 186 199 172 173 181 132 190 141 188 170 175 148 188 161 197 150
113 132 123 127 125 138 134 138 148 122 141 125 140 148 123 157 153 141 125 161 160 168 167 160 105 164 158 106 135 156 192 184 168 175 190 190 176 178 178 161 178 170 159 194 187 167 161 201 159
123 132 121 121 109 114 117 147 139 154 113 149 146 112 150 159 149 130 158 129 145 167 144 120 154 162 146 144 177 144 168 209 180 174 172 184 164 175 197 173 149 169 170 175 148 183 198 163 181
129 126 133 119 140 128 159 158 104 156 108 137 160 117 158 108 136 148 119 157 126 160 181 127 141 171 157 147 140 132 155 199 185 183 154 191 163 176 163 186 171 137 124 181 190 199 209 167 190
105 115 135 138 140 143 156 111 136 129 148 141 144 146 156 158 147 162 156 129 161 141 167 172 172 144 152 155 184 153 170 147 209 182 175 168 163 182 174 159 159 165 142 172 177 176 165 197 190
122 130 119 141 127 155 153 132 118 133 133 146 140 152 160 167 139 160 135 163 162 161 163 187 171 166 151 166 166 177 197 183 163 204 191 187 164 175 169 155 183 171 182 164 172 172 160 182 137
128 102 100 133 141 141 125 108 138 132 151 144 149 130 162 156 117 161 163 166 142 173 168 190 175 166 136 158 166 188 213 208 199 182 185 173 182 164 172 180 171 169 161 154 164 168 166 165 169
132 125 125 139 124 131 126 127 141 143 141 140 163 155 162 166 168 166 168 181 171 190 196 191 176 171 156 175 171 183 202 210 203 183 188 187 176 177 169 179 165 173 153 179 169 164 152 175 171
130 131 141 143 107 128 131 129 134 148 140 141 164 148 157 171 175 164 159 150 181 179 193 182 180 157 170 166 176 159 167 186 209 199 177 177 185 175 143 169 163 174 192 169 157 158 153 172 143
135 131 120 131 127 125 105 150 148 138 142 160 147 157 167 168 172 171 185 187 190 206 200 181 170 161 178 167 174 164 213 185 171 198 185 182 178 183 167 169 171 176 158 155 164 156 162 166 161
130 109 136 140 120 130 146 138 148 149 142 120 152 163 170 174 168 178 173 181 186 196 200 164 146 167 173 168 174 180 199 171 130 191 190 180 182 180 187 186 188 168 192 175 165 200 170 151 152
140 140 132 109 127 145 136 141 144 141 155 160 160 168 166 175 181 180 194 183 168 181 168 167 167 166 157 173 162 141 204 196 176 195 204 189 180 174 182 176 188 175 166 183 172 168 161 169 160
133 120 125 141 140 142 141 142 147 143 153 159 170 173 172 177 179 196 191 180 193 186 162 175 162 167 167 177 186 176 201 197 201 180 144 186 179 184 176 183 186 201 182 161 188 157 165 159 160
139 131 141 126 141 130 133 136 130 145 154 134 175 186 185 190 185 180 181 183 184 171 171 160 163 164 164 172 178 178 199 197 181 201 169 142 116 187 186 180 185 205 183 202 175 156 181 175 155
137 104 141 141 134 141 149 135 148 163 164 163 185 189 190 193 196 197 179 177 171 168 168 164 160 164 180 174 186 187 180 189 180 196 158 192 160 135 203 183 159 168 190 192 173 182 144 170 177
102 128 118 142 155 143 139 147 155 156 165 190 192 211 178 199 193 183 173 176 164 167 163 158 168 187 172 176 171 177 176 181 184 181 179 168 155 187 152 164 188 180 165 176 176 162 155 165 162
150 158 149 137 153 134 143 157 167 155 210 190 211 144 193 184 175 168 176 167 159 165 162 179 176 175 177 174 175 174 177 176 173 183 183 171 179 164 177 166 187 182 162 178 188 168 172 159 147
149 152 119 149 162 153 167 168 182 203 200 199 182 201 190 177 170 172 168 157 171 179 181 180 173 168 172 174 175 171 165 162 170 153 166 176 171 193 158 185 189 159 179 159 161 162 166 121 192
104 155 153 157 151 166 172 186 211 181 182 192 196 182 175 170 170 166 171 178 173 172 178 175 172 175 172 161 168 178 179 177 177 180 181 181 199 191 174 144 167 180 180 170 168 179 186 193 156
148 146 149 157 167 161 191 206 182 191 189 187 176 173 177 163 169 176 179 166 157 159 104 171 172 177 182 166 147 163 156 165 172 173 173 173 182 183 184 200 161 171 172 159 149 188 159 176 184
162 159 161 171 170 183 170 203 148 178 179 170 183 186 125 174 181 171 165 126 88 114 172 170 79 161 153 163 162 129 155 171 130 156 173 190 188 184 198 182 161 175 168 182 174 159 182 170 188
162 160 168 189 204 178 181 194 164 80 176 159 187 168 180 151 171 140 131 156 170 175 70 177 93 166 96 83 94 114 175 182 181 172 98 202 216 212 205 225 231 164 161 160 164 198 179 202 182
172 201 202 186 181 179 166 182 78 159 137 175 161 155 90 167 175 89 166 167 178 178 174 158 178 83 172 89 170 88 167 173 87 143 170 186 180 194 195 203 182 153 162 155 203 211 161 203 176
199 194 185 193 196 186 171 189 174 154 88 85 124 132 176 172 81 135 147 195 171 185 168 74 88 103 147 178 163 178 155 196 140 201 180 215 164 186 250 229 207 86 135 123 96 96 104 175 169
187 181 195 184 186 172 192 155 181 83 78 68 176 135 179 175 158 151 171 172 201 161 165 72 204 112 224 205 175 104 171 196 184 168 184 134 186 207 232 239 216 191 189 121 162 187 102 153 206
160 175 183 180 190 193 193 187 132 162 181 187 174 169 170 182 185 167 207 209 222 137 122 194 208 218 222 211 184 217 178 214 230 185 159 260 168 229 104 208 248 244 240 226 108 166 167 204 170
170 197 187 192 191 193 194 181 184 65 188 186 165 110 184 178 191 174 189 208 221 211 207 184 207 170 85 178 196 211 223 195 225 206 292 266 256 253 251 253 246 218 217 241 256 232 183 198 182
179 186 190 179 189 190 189 170 180 194 191 176 173 192 192 197 192 189 200 188 204 177 194 159 219 207 196 196 169 239 251 283 321 282 312 337 359 289 279 172 77 129 105 248 252 261 237 198 202
185 194 190 188 193 189 190 193 181 168 176 179 173 196 198 180 177 190 176 185 192 164 212 85 217 207 215 224 236 254 299 315 356 362 328 363 406 452 316 269 252 231 228 202 265 215 204 248 204
191 181 188 190 194 192 183 195 148 192 184 140 72 180 201 186 186 218 204 202 206 203 199 206 215 210 231 245 336 267 360 356 323 336 306 344 404 353 353 292 279 236 228 259 209 230 190 220 223
Wind_Speed
40 40 41 43 45 47 42 52 46 43 56 54 41 43 51 50 55 57 56 48 44 60 54 54 56 58 56 42 53 49 40 36 50 39 35 40 50 34 41 34 44 43 50 51 29 42 35 36 50
39 41 44 43 45 45 44 52 48 48 46 53 54 53 52 50 57 48 43 63 57 59 60 60 44 54 47 36 53 56 43 40 47 49 36 32 44 39 36 49 44 49 47 37 35 43 36 34 34
43 42 38 47 31 44 55 49 51 46 41 51 51 39 51 55 57 48 63 54 55 66 59 50 56 56 61 60 53 42 49 49 42 44 51 40 56 40 26 36 49 52 54 49 50 42 30 36 37
45 44 45 48 45 44 51 45 44 51 57 57 59 40 57 53 64 65 59 64 61 63 61 60 67 57 61 66 60 51 58 44 48 40 59 32 60 43 54 31 48 41 54 44 37 32 31 32 34
35 48 52 50 50 46 51 47 52 55 53 55 57 59 61 59 60 71 65 60 65 57 65 62 55 59 58 63 49 38 56 52 38 46 43 49 56 35 45 57 58 53 54 46 44 38 47 32 34
47 50 42 55 50 60 57 54 58 55 56 62 59 57 63 56 64 68 56 69 70 64 62 57 55 56 65 59 55 46 47 46 45 35 35 36 39 39 48 58 37 44 38 54 45 48 43 32 40
53 36 39 58 59 58 52 54 65 59 65 66 62 56 66 62 52 68 69 67 65 66 61 52 50 54 57 63 55 50 49 37 34 36 35 41 35 49 45 43 48 47 56 47 53 47 47 51 43
51 56 58 65 53 59 55 63 65 70 65 66 70 65 68 63 67 64 67 65 68 62 51 45 47 53 59 53 57 49 48 44 36 38 32 31 37 38 48 41 48 41 56 38 45 51 51 44 44
54 56 67 68 58 58 64 65 63 70 71 73 72 69 75 75 70 64 67 71 62 61 48 49 49 58 57 58 54 56 63 40 40 36 36 38 33 43 56 47 52 44 40 48 58 58 50 41 44
57 59 55 62 62 66 59 74 71 70 74 79 70 78 79 79 75 70 70 63 58 57 48 47 51 55 54 56 53 61 55 47 44 39 40 39 43 39 52 51 47 44 54 56 48 59 57 54 52
58 61 66 69 65 68 77 72 79 80 75 65 79 81 81 80 76 75 67 63 59 48 45 56 69 58 57 57 61 61 53 48 45 37 37 42 47 47 50 46 43 49 39 43 51 39 54 53 53
65 71 67 67 68 78 73 78 82 80 84 86 85 82 79 82 80 75 70 60 62 54 52 55 56 57 65 59 52 65 57 42 36 33 38 40 45 50 51 48 46 43 46 40 46 55 58 58 60
67 65 66 76 78 78 78 84 83 85 84 85 87 82 80 80 74 72 63 61 56 51 64 52 64 63 64 72 74 62 59 48 45 38 53 39 46 51 50 54 48 50 39 52 35 60 60 59 62
72 71 74 74 80 74 80 84 80 86 86 75 86 80 81 77 74 68 61 59 56 59 57 66 66 68 68 72 71 65 69 62 41 55 35 54 65 41 49 51 51 51 40 44 47 58 44 46 63
72 57 79 82 80 84 88 84 88 88 89 89 86 80 75 73 66 61 61 59 63 62 63 62 71 72 80 73 73 71 64 69 56 66 58 53 54 60 52 47 46 48 40 35 42 37 50 51 49
55 74 75 87 87 82 83 89 93 90 92 83 81 69 70 67 65 60 63 66 71 69 70 74 78 83 77 75 73 74 70 73 69 62 55 53 58 50 67 48 52 51 50 42 38 56 62 57 57
86 84 83 82 91 83 87 93 98 91 75 80 69 83 68 63 63 63 68 69 74 77 78 85 81 81 84 80 81 79 83 80 73 75 75 56 52 51 51 56 56 49 54 42 56 49 47 64 61
86 86 79 91 98 91 98 97 97 79 76 72 75 65 64 65 66 68 71 72 79 84 84 84 80 81 84 91 83 81 74 74 78 62 66 77 68 84 63 73 77 64 56 59 58 58 56 52 64
72 92 89 94 92 99 98 94 71 87 79 68 62 61 63 70 71 74 77 81 79 81 84 83 86 86 86 85 93 91 91 90 91 92 91 87 90 84 52 76 53 71 70 68 56 56 64 69 72
94 86 92 100 103 97 95 77 84 78 71 69 66 65 68 73 77 81 83 82 72 78 33 91 95 99 95 87 75 97 80 93 95 92 91 85 91 82 72 94 75 72 67 70 67 80 72 64 67
100 100 103 101 99 98 93 76 95 82 80 73 72 74 52 76 83 77 80 46 18 43 89 92 29 82 86 91 94 61 96 103 57 73 97 106 98 85 108 66 60 53 70 78 77 76 81 72 72
101 103 101 99 87 89 90 71 87 18 87 64 72 74 80 61 76 60 52 75 87 89 21 94 45 90 44 39 37 54 105 110 113 104 34 117 117 118 113 94 109 78 77 77 74 87 78 83 73
104 97 91 93 90 87 87 81 12 91 107 79 62 57 21 75 75 21 81 85 94 94 93 96 100 36 104 41 110 37 99 105 37 69 99 108 84 112 109 83 70 82 85 84 80 80 75 72 80
94 94 96 88 84 77 87 85 83 98 12 8 32 44 79 77 21 58 64 94 83 88 95 33 29 53 92 111 112 118 94 112 81 121 96 119 77 100 108 94 100 31 53 47 35 38 40 72 81
96 95 89 90 89 81 83 57 86 25 12 24 83 57 80 83 76 72 84 91 85 94 98 33 96 63 93 97 116 53 113 122 109 76 112 31 98 93 121 108 102 89 77 56 85 70 45 63 64
96 97 92 93 89 82 84 79 98 89 95 88 81 82 85 89 94 88 94 88 92 61 59 91 100 104 110 111 120 122 108 123 128 99 63 136 79 109 41 91 108 108 105 97 46 99 87 64 91
97 93 95 91 89 87 81 80 87 21 97 86 77 48 87 89 90 90 87 94 102 102 94 103 92 104 40 118 113 116 124 129 142 131 126 99 97 93 94 102 100 93 95 94 97 89 87 52 57
98 96 95 90 92 93 83 82 87 95 100 93 92 98 95 95 88 86 92 88 101 99 105 75 123 113 119 127 88 138 140 152 123 117 114 103 105 93 96 67 31 41 39 95 94 88 67 58 51
100 98 99 96 93 92 90 91 88 78 90 92 91 103 101 85 94 101 104 100 98 83 121 40 128 122 129 139 148 148 148 123 85 71 79 57 61 61 88 93 87 81 83 66 90 53 74 62 54
98 98 100 100 99 97 87 89 85 99 85 77 27 88 110 97 98 117 113 112 116 115 114 123 130 130 143 151 128 121 67 69 67 54 68 33 38 38 55 71 80 83 79 78 62 58 68 54 57
Wind_Direction
294 294 297 293 295 298 302 297 314 307 300 301 317 314 307 326 321 321 321 317 314 320 312 315 308 304 307 305 299 321 312 291 295 298 294 287 293 296 280 287 284 296 302 296 277 302 282 297 284
299 293 294 292 295 299 299 300 305 297 309 307 305 308 300 324 315 316 305 317 317 321 317 309 280 311 311 297 305 303 310 298 298 293 289 288 296 295 294 299 287 299 299 306 289 300 279 289 280
291 292 295 290 298 307 295 299 297 307 299 306 304 316 315 323 311 310 313 299 313 318 310 298 309 307 304 303 309 305 306 314 297 296 295 285 300 296 295 288 291 298 297 303 276 300 292 279 280
294 289 292 288 297 299 303 310 312 308 310 298 315 314 326 306 293 303 313 310 306 309 311 312 304 306 302 301 301 308 302 310 299 293 302 287 297 291 296 287 288 286 269 297 303 302 292 289 287
308 291 295 296 296 300 308 300 294 295 310 298 305 313 316 312 310 306 306 306 311 306 308 305 305 300 301 303 313 304 303 302 299 294 289 291 292 286 282 296 296 295 298 293 299 287 301 289 286
288 294 292 298 288 310 308 297 292 296 311 309 305 319 307 315 300 307 305 307 306 307 304 299 300 299 298 304 305 306 314 305 296 292 286 285 279 279 285 297 291 287 302 295 299 298 278 290 293
295 302 298 295 304 303 283 297 304 298 313 303 309 309 311 312 296 305 303 303 307 306 305 297 297 294 296 300 300 316 323 309 294 294 284 281 276 284 281 284 283 286 289 300 295 294 297 298 300
292 294 293 297 293 298 308 299 307 308 304 299 314 312 311 312 308 306 305 306 304 309 305 293 290 290 296 300 299 311 327 318 297 285 288 280 277 273 279 284 278 287 294 287 286 290 298 284 289
290 295 294 299 304 296 299 300 303 303 301 301 314 307 310 311 310 304 307 305 309 306 301 293 289 294 300 299 310 312 312 309 308 294 293 277 278 270 292 278 279 280 292 284 289 290 290 281 287
292 292 294 295 294 296 302 304 304 297 306 307 309 309 310 310 309 310 310 309 307 308 296 290 291 294 303 301 307 310 323 312 306 300 289 283 279 280 271 278 277 279 280 285 278 289 286 285 289
292 293 293 294 289 296 299 302 303 304 299 309 308 310 309 309 307 312 306 307 308 304 296 291 302 297 304 295 307 314 316 301 273 301 292 288 290 287 288 281 284 274 290 273 274 294 277 288 291
291 290 292 294 292 296 299 302 301 302 307 307 306 307 307 306 307 308 306 305 298 298 295 296 297 297 296 305 289 300 317 313 303 310 302 285 283 286 286 286 285 282 273 276 272 274 280 275 286
285 284 289 292 295 297 301 299 301 300 303 301 302 307 305 303 305 305 304 301 302 300 293 301 296 298 302 308 308 304 314 313 317 303 277 299 293 290 286 289 291 294 284 271 284 278 275 283 284
288 288 290 295 292 294 292 294 296 297 300 305 306 301 302 301 301 300 300 301 302 297 300 295 298 298 298 302 303 302 321 318 291 316 284 276 282 304 294 291 287 288 283 296 268 278 271 277 285
285 301 289 292 291 291 292 293 297 300 299 301 299 299 298 301 301 302 299 299 296 296 299 296 294 294 302 300 309 312 305 315 301 316 284 308 276 269 307 297 292 280 288 293 267 278 276 268 275
295 285 291 287 291 288 291 297 299 299 299 297 298 296 297 301 303 302 299 302 295 299 296 295 299 303 300 304 301 309 306 310 310 306 300 278 274 303 280 286 296 285 270 279 274 269 273 268 271
283 289 289 286 292 287 295 297 297 296 293 294 294 296 298 300 299 297 300 296 296 298 295 302 303 304 305 306 308 308 310 307 302 306 305 283 278 261 274 279 299 287 269 277 291 267 267 266 277
286 288 286 290 292 293 298 298 296 292 292 294 297 298 303 300 298 296 294 292 298 298 301 303 300 300 305 306 305 302 297 294 298 282 285 296 286 295 265 297 293 273 278 268 264 266 263 275 296
293 287 289 291 291 296 296 295 288 295 296 294 294 299 299 296 298 293 298 300 297 297 302 301 303 305 303 300 302 304 302 301 300 300 298 297 294 293 274 275 265 287 284 279 267 276 291 297 271
285 288 289 291 292 295 294 292 296 295 296 297 298 297 298 290 294 298 299 297 301 299 295 305 304 302 302 299 298 298 299 296 295 294 292 291 293 291 288 288 271 282 272 271 276 291 266 277 284
285 286 286 288 290 293 291 296 292 300 293 295 297 296 288 292 293 295 295 297 292 293 301 299 303 299 297 295 295 295 296 296 294 293 296 293 291 283 289 279 275 266 261 283 284 269 286 283 285
283 283 286 288 289 289 295 298 297 285 288 295 295 294 295 293 298 299 296 296 296 297 299 296 298 293 298 300 295 292 296 294 293 293 291 293 297 293 292 288 292 265 273 255 263 291 282 281 278
284 285 287 288 290 292 297 292 268 287 293 294 292 290 287 295 295 287 291 294 296 297 296 296 297 296 295 289 295 290 295 293 289 293 293 295 294 296 296 288 251 274 275 267 291 287 273 283 275
283 283 285 285 285 291 286 288 287 287 168 260 281 290 295 294 272 288 291 294 290 289 289 290 268 293 292 291 295 291 290 290 291 291 291 292 291 289 287 281 280 285 284 261 283 288 287 277 272
281 282 283 288 288 285 284 284 285 269 257 258 296 299 295 289 289 292 288 288 292 288 289 292 293 287 296 286 287 280 290 288 295 288 291 286 292 287 282 280 276 256 276 271 265 256 282 275 270
278 284 287 284 284 284 284 288 284 284 288 294 297 294 292 298 297 292 294 297 299 284 284 288 295 301 300 295 283 296 287 287 295 289 295 291 284 278 283 280 272 271 273 279 279 261 265 264 260
279 281 281 283 284 283 282 287 285 252 293 295 295 287 297 290 293 291 290 306 305 303 305 281 297 293 279 289 292 286 290 286 290 281 285 278 274 269 267 267 266 265 268 272 270 272 257 259 269
280 279 281 282 283 283 286 283 288 290 291 295 297 297 298 298 299 300 306 293 305 296 297 295 304 299 289 290 288 298 297 298 290 291 286 275 264 259 259 260 278 253 288 267 266 266 270 249 253
279 280 281 281 283 285 284 285 289 283 288 293 293 298 302 294 303 307 295 303 301 302 306 261 302 297 299 298 297 298 296 294 280 279 277 274 266 247 249 249 256 257 261 257 262 236 255 258 247
277 279 281 282 282 283 288 289 276 289 297 291 266 298 304 305 307 300 307 311 308 307 302 302 300 299 298 298 299 299 284 280 278 273 272 281 266 228 247 248 251 254 256 255 247 264 239 243 241